Location: Menands
(42.6920°N, 73.7246°W)
Time: 16:14:53
(UTC+00:00)

Daily predictions for brighter satellites

Satellite Brightness Start Highest point End
(mag) Time Altitude Azimuth Time Altitude Azimuth Time Altitude Azimuth
SJ-6F 4.3 22:51:46 10° SSE 22:55:41 77° ENE 22:59:36 10° N
SL-16 R/B 2.8 22:51:03 10° N 22:56:12 34° NE 23:01:19 10° ESE
PSLV R/B 4.2 22:58:59 10° SE 23:02:34 29° ENE 23:06:07 10° N
SAR-Lupe-4 3.5 23:01:12 10° SSE 23:04:43 67° ENE 23:08:17 10° N
NOSS 3-4 (A) 4.0 22:59:14 10° NW 23:06:12 89° SW 23:14:23 10° SSE
Meteor 1-27 4.3 23:00:23 10° N 23:06:13 77° E 23:12:03 10° SSE
CARTOSAT-1 4.1 23:02:29 10° SE 23:06:16 33° ENE 23:10:03 10° N
NOSS 3-4 (C) 4.0 22:59:32 10° NW 23:06:31 89° SW 23:14:41 10° SSE
Meteor 2-17 Rocket 4.4 23:00:50 10° S 23:06:48 65° E 23:12:47 10° NNE
Cosmos 1602 2.7 23:05:39 10° S 23:08:22 70° E 23:11:07 10° NNE
Cosmos 2228 3.1 23:05:30 10° N 23:09:36 49° E 23:13:41 10° SSE
DNEPR-1 R/B 4.1 23:05:35 10° NNW 23:10:40 78° NE 23:16:51 10° SE
Resurs 1-3 3.5 23:07:17 10° SSE 23:11:32 69° ENE 23:15:49 10° N
Cosmos 1346 Rocket 2.7 23:08:33 10° S 23:12:01 48° E 23:15:33 10° NNE
SeaSat 1 2.5 23:07:36 10° SE 23:12:23 58° ENE 23:17:12 10° NNW
IRS-P3 4.3 23:07:04 10° SSE 23:12:23 81° WSW 23:17:44 10° NNW
COSMO-SKYMED 1 2.5 23:09:12 10° NNE 23:13:15 54° E 23:17:15 10° S
Cosmos 1844 Rocket 4.4 23:13:32 10° ESE 23:15:17 11° E 23:16:09 11° E
Cosmos 2150 Rocket 4.0 23:13:25 10° NNW 23:18:35 89° ENE 23:23:42 10° SSE
SL-8 R/B 4.4 23:18:37 10° SSW 23:23:00 37° SE 23:26:29 15° E
Cosmos 1782 2.6 23:21:14 10° N 23:24:45 54° E 23:28:15 10° SSE
SKYMED 2 4.2 23:20:36 10° N 23:24:54 61° WNW 23:29:10 10° SSW
Cosmos 2298 Rocket 4.1 23:20:49 10° NNW 23:26:07 84° WSW 23:31:25 10° SSE
RESURS DK-1 3.9 23:24:23 10° N 23:26:55 16° NE 23:27:49 15° ENE
Gbstr 26 Del rocket 4.3 23:20:27 10° WSW 23:26:56 78° NNW 23:34:27 10° NE
Tiangong -1.7 23:26:21 10° W 23:29:29 57° S 23:31:43 17° ESE
CRYOSAT 2 4.3 23:24:42 10° N 23:29:35 70° E 23:34:26 10° S
SJ-7 4.0 23:26:50 10° SSE 23:30:28 71° ENE 23:34:07 10° N
Cosmos 2034 Rocket 4.1 23:25:28 10° N 23:31:29 50° ENE 23:37:30 10° SSE
Cosmos 1072 Rocket 4.4 23:25:17 10° N 23:31:30 82° E 23:37:37 10° S
Cosmos 2297 Rocket 4.2 23:27:32 10° WSW 23:32:17 27° NW 23:37:04 10° N
Cosmos 1536 Rocket 4.4 23:29:39 10° SE 23:33:17 27° E 23:36:58 10° NNE
Cosmos 2098 Rocket 3.9 23:31:12 10° NNE 23:33:20 19° ENE 23:33:20 19° ENE
USA 267 3.9 23:29:45 10° NE 23:36:06 54° NNW 23:42:24 10° WSW
Cosmos 2058 2.7 23:32:55 10° S 23:36:44 60° E 23:40:35 10° NNE
Cosmos 1943 4.1 23:33:00 10° N 23:37:55 29° NE 23:40:56 18° E
YAOGAN 3 4.5 23:33:52 10° SSE 23:38:00 59° ENE 23:42:09 10° N
Resurs 01 Rocket 1.6 23:37:13 10° SSE 23:41:32 62° ENE 23:45:55 10° N
Cosmos 1862 2.9 23:38:27 10° S 23:41:59 64° E 23:45:31 10° NNE
Helios 1A Rocket 2.8 23:49:22 31° ENE 23:50:07 36° E 23:53:08 10° SSE
Cosmos 2263 Rocket 2.5 23:45:26 10° SSW 23:51:05 69° WNW 23:56:47 10° NNE
YAOGAN 1 3.8 23:48:39 10° S 23:52:42 43° W 23:56:47 10° NNW
Meteor 1-31 Rocket 4.4 23:55:38 16° NNE 23:55:38 16° NNE 23:56:42 10° NNE
Cosmos 1538 Rocket 4.2 23:49:06 10° S 23:54:15 51° ESE 23:59:26 10° NNE
